| time (UTC) | temp F | wind direction | speed MPH | gust MPH | rain 1hr in | rain 24hr in | rain mn in | humidity % | barometer mb |
| 20260503203643 | 61 | 77 | 0.0 | 2.0 | 0.00 | 0.00 | 0.00 | 29 | 990.4 |
| 20260503203141 | 61 | 50 | 2.0 | 3.0 | 0.00 | 0.00 | 0.00 | 28 | 990.4 |
| 20260503202638 | 61 | 97 | 0.0 | 1.0 | 0.00 | 0.00 | 0.00 | 29 | 990.4 |
| 20260503202136 | 61 | 92 | 0.0 | 2.0 | 0.00 | 0.00 | 0.00 | 27 | 990.5 |
| 20260503201634 | 61 | 156 | 2.0 | 3.0 | 0.00 | 0.00 | 0.00 | 27 | 990.3 |
| 20260503201131 | 61 | 146 | 2.0 | 7.0 | 0.00 | 0.00 | 0.00 | 28 | 990.7 |
| 20260503200627 | 61 | 224 | 0.0 | 1.0 | 0.00 | 0.00 | 0.00 | 27 | 990.6 |
| 20260503200124 | 62 | 91 | 1.0 | 2.0 | 0.00 | 0.00 | 0.00 | 25 | 990.7 |
| 20260503195621 | 61 | 122 | 3.0 | 4.0 | 0.00 | 0.00 | 0.00 | 26 | 990.9 |
| 20260503195118 | 62 | 110 | 1.0 | 2.0 | 0.00 | 0.00 | 0.00 | 26 | 991.0 |
| 20260503194615 | 62 | 178 | 4.0 | 6.0 | 0.00 | 0.00 | 0.00 | 25 | 990.9 |
| 20260503194115 | 62 | 195 | 2.0 | 2.0 | 0.00 | 0.00 | 0.00 | 26 | 991.0 |
| 20260503193613 | 62 | 194 | 1.0 | 8.0 | 0.00 | 0.00 | 0.00 | 26 | 990.9 |
| 20260503193108 | 62 | 102 | 2.0 | 3.0 | 0.00 | 0.00 | 0.00 | 28 | 991.1 |
| 20260503192604 | 62 | 115 | 2.0 | 3.0 | 0.00 | 0.00 | 0.00 | 25 | 991.2 |
| 20260503192100 | 62 | 143 | 1.0 | 3.0 | 0.00 | 0.00 | 0.00 | 27 | 991.4 |
| 20260503191557 | 62 | 118 | 3.0 | 4.0 | 0.00 | 0.00 | 0.00 | 26 | 991.5 |
| 20260503191054 | 62 | 99 | 1.0 | 2.0 | 0.00 | 0.00 | 0.00 | 28 | 991.5 |
| 20260503190551 | 62 | 106 | 3.0 | 3.0 | 0.00 | 0.00 | 0.00 | 28 | 991.4 |
| 20260503190048 | 60 | 233 | 5.0 | 6.0 | 0.00 | 0.00 | 0.00 | 29 | 991.4 |
| 20260503185544 | 61 | 181 | 5.0 | 7.0 | 0.00 | 0.00 | 0.00 | 27 | 991.8 |
| 20260503185044 | 60 | 210 | 3.0 | 4.0 | 0.00 | 0.00 | 0.00 | 28 | 991.8 |
| 20260503184540 | 60 | 193 | 3.0 | 7.0 | 0.00 | 0.00 | 0.00 | 27 | 991.8 |
| 20260503184037 | 61 | 79 | 2.0 | 6.0 | 0.00 | 0.00 | 0.00 | 29 | 991.8 |
| 20260503183533 | 60 | 149 | 2.0 | 4.0 | 0.00 | 0.00 | 0.00 | 32 | 991.9 |
| 20260503183031 | 60 | 120 | 2.0 | 2.0 | 0.00 | 0.00 | 0.00 | 30 | 992.2 |
| 20260503182529 | 60 | 177 | 3.0 | 3.0 | 0.00 | 0.00 | 0.00 | 29 | 992.0 |
| 20260503182027 | 60 | 176 | 0.0 | 2.0 | 0.00 | 0.00 | 0.00 | 30 | 992.1 |
| 20260503181523 | 60 | 103 | 0.0 | 1.0 | 0.00 | 0.00 | 0.00 | 30 | 992.1 |
| 20260503181019 | 60 | 109 | 2.0 | 3.0 | 0.00 | 0.00 | 0.00 | 28 | 992.0 |
| 20260503180517 | 60 | 105 | 1.0 | 2.0 | 0.00 | 0.00 | 0.00 | 31 | 992.2 |
| 20260503180014 | 60 | 47 | 1.0 | 2.0 | 0.00 | 0.00 | 0.00 | 31 | 992.0 |
| 20260503175512 | 60 | 91 | 0.0 | 3.0 | 0.00 | 0.00 | 0.00 | 29 | 992.1 |
| 20260503175008 | 59 | 184 | 1.0 | 4.0 | 0.00 | 0.00 | 0.00 | 30 | 992.2 |
| 20260503174506 | 58 | 102 | 1.0 | 6.0 | 0.00 | 0.00 | 0.00 | 33 | 992.4 |
| 20260503174002 | 58 | 78 | 1.0 | 2.0 | 0.00 | 0.00 | 0.00 | 33 | 992.4 |
| 20260503173457 | 58 | 195 | 2.0 | 6.0 | 0.00 | 0.00 | 0.00 | 31 | 992.4 |
| 20260503172954 | 58 | 221 | 0.0 | 0.0 | 0.00 | 0.00 | 0.00 | 33 | 992.3 |
| 20260503172451 | 58 | 232 | 4.0 | 6.0 | 0.00 | 0.00 | 0.00 | 32 | 992.5 |
| 20260503171948 | 58 | 104 | 3.0 | 4.0 | 0.00 | 0.00 | 0.00 | 31 | 992.5 |
| 20260503171445 | 58 | 210 | 4.0 | 6.0 | 0.00 | 0.00 | 0.00 | 31 | 992.6 |
| 20260503170943 | 57 | 212 | 1.0 | 2.0 | 0.00 | 0.00 | 0.00 | 33 | 992.7 |
| 20260503170438 | 58 | 94 | 3.0 | 3.0 | 0.00 | 0.00 | 0.00 | 32 | 992.9 |
| 20260503150831 | 53 | 110 | 1.0 | 3.0 | 0.00 | 0.00 | 0.00 | 39 | 994.0 |
| 20260503150327 | 53 | 269 | 2.0 | 6.0 | 0.00 | 0.00 | 0.00 | 39 | 994.2 |
| 20260503140251 | 50 | 221 | 3.0 | 4.0 | 0.00 | 0.00 | 0.00 | 44 | 993.7 |
| 20260503131221 | 48 | 236 | 1.0 | 2.0 | 0.00 | 0.00 | 0.00 | 44 | 993.9 |
| 20260503130718 | 49 | 192 | 3.0 | 6.0 | 0.00 | 0.00 | 0.00 | 44 | 994.0 |
| 20260503130215 | 49 | 186 | 0.0 | 3.0 | 0.00 | 0.00 | 0.00 | 47 | 993.8 |
| 20260503120141 | 46 | 65 | 0.0 | 0.0 | 0.00 | 0.00 | 0.00 | 56 | 993.8 |
| 20260503110609 | 42 | 245 | 0.0 | 0.0 | 0.00 | 0.00 | 0.00 | 66 | 993.5 |
| 20260503110106 | 41 | 245 | 0.0 | 0.0 | 0.00 | 0.00 | 0.00 | 66 | 993.3 |
| 20260503090455 | 41 | 199 | 0.0 | 0.0 | 0.00 | 0.00 | 0.00 | 64 | 992.0 |
| 20260503081422 | 42 | 182 | 0.0 | 2.0 | 0.00 | 0.00 | 0.00 | 61 | 991.9 |
| 20260503080919 | 42 | 216 | 0.0 | 1.0 | 0.00 | 0.00 | 0.00 | 62 | 991.6 |
| 20260503080415 | 42 | 175 | 1.0 | 2.0 | 0.00 | 0.00 | 0.00 | 63 | 991.6 |
| 20260503072852 | 42 | 206 | 0.0 | 1.0 | 0.00 | 0.00 | 0.00 | 63 | 991.4 |
| 20260503072349 | 42 | 205 | 0.0 | 0.0 | 0.00 | 0.00 | 0.00 | 63 | 991.5 |
| 20260503071845 | 41 | 200 | 0.0 | 0.0 | 0.00 | 0.00 | 0.00 | 64 | 991.3 |
| 20260503071343 | 41 | 200 | 0.0 | 0.0 | 0.00 | 0.00 | 0.00 | 64 | 991.3 |
| 20260503070839 | 41 | 199 | 0.0 | 1.0 | 0.00 | 0.00 | 0.00 | 63 | 991.4 |
| 20260503070337 | 42 | 205 | 0.0 | 0.0 | 0.00 | 0.00 | 0.00 | 63 | 991.3 |
| 20260503060308 | 44 | 195 | 0.0 | 1.0 | 0.00 | 0.00 | 0.00 | 59 | 990.9 |
| 20260503054755 | 44 | 185 | 1.0 | 1.0 | 0.00 | 0.00 | 0.00 | 57 | 990.9 |
| 20260503054252 | 44 | 202 | 2.0 | 3.0 | 0.00 | 0.00 | 0.00 | 57 | 991.0 |
| 20260503053750 | 45 | 174 | 1.0 | 3.0 | 0.00 | 0.00 | 0.00 | 56 | 991.1 |
| 20260503053248 | 45 | 198 | 3.0 | 4.0 | 0.00 | 0.00 | 0.00 | 56 | 991.0 |
| 20260503052744 | 45 | 205 | 3.0 | 4.0 | 0.00 | 0.00 | 0.00 | 55 | 990.9 |
| 20260503052241 | 45 | 210 | 3.0 | 4.0 | 0.00 | 0.00 | 0.00 | 56 | 990.8 |
| 20260503051736 | 45 | 207 | 4.0 | 4.0 | 0.00 | 0.00 | 0.00 | 56 | 990.9 |
| 20260503051234 | 45 | 251 | 3.0 | 3.0 | 0.00 | 0.00 | 0.00 | 57 | 991.1 |
| 20260503050730 | 45 | 179 | 1.0 | 1.0 | 0.00 | 0.00 | 0.00 | 58 | 990.8 |
| 20260503050227 | 45 | 192 | 1.0 | 6.0 | 0.00 | 0.00 | 0.00 | 58 | 990.8 |
| 20260503045724 | 44 | 207 | 0.0 | 1.0 | 0.00 | 0.00 | 0.00 | 60 | 991.0 |
| 20260503045222 | 44 | 218 | 2.0 | 3.0 | 0.00 | 0.00 | 0.00 | 61 | 990.9 |
| 20260503044718 | 44 | 266 | 1.0 | 1.0 | 0.00 | 0.00 | 0.00 | 61 | 990.9 |
| 20260503044216 | 44 | 252 | 0.0 | 0.0 | 0.00 | 0.00 | 0.00 | 60 | 990.9 |
| 20260503043712 | 44 | 252 | 0.0 | 0.0 | 0.00 | 0.00 | 0.00 | 60 | 991.1 |
| 20260503043210 | 44 | 227 | 0.0 | 0.0 | 0.00 | 0.00 | 0.00 | 59 | 990.9 |
| 20260503042705 | 44 | 227 | 0.0 | 1.0 | 0.00 | 0.00 | 0.00 | 59 | 991.0 |
| 20260503042202 | 45 | 215 | 0.0 | 0.0 | 0.00 | 0.00 | 0.00 | 58 | 990.8 |
| 20260503041658 | 46 | 260 | 1.0 | 1.0 | 0.00 | 0.00 | 0.00 | 57 | 990.8 |
| 20260503041156 | 46 | 181 | 1.0 | 1.0 | 0.00 | 0.00 | 0.00 | 57 | 991.0 |
| 20260503040653 | 46 | 191 | 0.0 | 0.0 | 0.00 | 0.00 | 0.00 | 56 | 990.6 |
| 20260503040151 | 46 | 152 | 1.0 | 1.0 | 0.00 | 0.00 | 0.00 | 56 | 990.8 |
| 20260503035647 | 46 | 167 | 2.0 | 2.0 | 0.00 | 0.00 | 0.00 | 57 | 990.8 |
| 20260503035145 | 46 | 187 | 1.0 | 2.0 | 0.00 | 0.00 | 0.00 | 57 | 990.7 |
| 20260503034642 | 46 | 191 | 2.0 | 2.0 | 0.00 | 0.00 | 0.00 | 56 | 991.0 |
| 20260503034139 | 47 | 208 | 3.0 | 3.0 | 0.00 | 0.00 | 0.00 | 55 | 990.6 |
| 20260503033636 | 47 | 180 | 1.0 | 2.0 | 0.00 | 0.00 | 0.00 | 55 | 990.7 |
| 20260503033134 | 47 | 215 | 2.0 | 3.0 | 0.00 | 0.00 | 0.00 | 54 | 990.7 |
| 20260503032632 | 47 | 177 | 1.0 | 2.0 | 0.00 | 0.00 | 0.00 | 54 | 990.6 |
| 20260503032131 | 47 | 166 | 1.0 | 2.0 | 0.00 | 0.00 | 0.00 | 54 | 990.4 |
| 20260503031627 | 48 | 200 | 1.0 | 1.0 | 0.00 | 0.00 | 0.00 | 53 | 990.4 |
| 20260503031125 | 48 | 194 | 3.0 | 3.0 | 0.00 | 0.00 | 0.00 | 52 | 990.5 |
| 20260503030621 | 48 | 180 | 2.0 | 2.0 | 0.00 | 0.00 | 0.00 | 52 | 990.6 |
| 20260503030118 | 48 | 216 | 3.0 | 3.0 | 0.00 | 0.00 | 0.00 | 52 | 990.7 |
| 20260503025614 | 48 | 196 | 1.0 | 8.0 | 0.00 | 0.00 | 0.00 | 51 | 990.7 |
| 20260503025113 | 49 | 183 | 3.0 | 4.0 | 0.00 | 0.00 | 0.00 | 50 | 990.4 |
| 20260503024609 | 49 | 197 | 1.0 | 1.0 | 0.00 | 0.00 | 0.00 | 50 | 990.4 |
| 20260503024106 | 49 | 172 | 3.0 | 4.0 | 0.00 | 0.00 | 0.00 | 49 | 990.4 |
| 20260503023603 | 49 | 178 | 3.0 | 4.0 | 0.00 | 0.00 | 0.00 | 49 | 990.7 |
| 20260503023100 | 49 | 191 | 1.0 | 2.0 | 0.00 | 0.00 | 0.00 | 49 | 990.3 |
| 20260503022555 | 50 | 203 | 1.0 | 3.0 | 0.00 | 0.00 | 0.00 | 48 | 990.5 |
| 20260503022050 | 50 | 181 | 2.0 | 6.0 | 0.00 | 0.00 | 0.00 | 47 | 990.5 |
| 20260503021548 | 50 | 196 | 1.0 | 1.0 | 0.00 | 0.00 | 0.00 | 49 | 990.4 |
| 20260503021044 | 50 | 160 | 0.0 | 4.0 | 0.00 | 0.00 | 0.00 | 47 | 990.1 |
| 20260503020542 | 50 | 189 | 0.0 | 0.0 | 0.00 | 0.00 | 0.00 | 49 | 990.3 |
| 20260503020038 | 50 | 202 | 0.0 | 0.0 | 0.00 | 0.00 | 0.00 | 48 | 990.2 |
| 20260503015535 | 50 | 329 | 1.0 | 2.0 | 0.00 | 0.00 | 0.00 | 47 | 990.2 |
| 20260503015032 | 51 | 240 | 1.0 | 1.0 | 0.00 | 0.00 | 0.00 | 46 | 990.1 |
| 20260503014528 | 51 | 172 | 1.0 | 2.0 | 0.00 | 0.00 | 0.00 | 45 | 990.2 |
| 20260503014026 | 51 | 186 | 1.0 | 2.0 | 0.00 | 0.00 | 0.00 | 45 | 990.0 |
| 20260503013523 | 51 | 216 | 1.0 | 2.0 | 0.00 | 0.00 | 0.00 | 44 | 990.2 |
| 20260503013021 | 51 | 216 | 1.0 | 2.0 | 0.00 | 0.00 | 0.00 | 44 | 990.1 |
| 20260503012518 | 51 | 197 | 3.0 | 4.0 | 0.00 | 0.00 | 0.00 | 44 | 990.2 |
| 20260503012014 | 52 | 225 | 1.0 | 4.0 | 0.00 | 0.00 | 0.00 | 44 | 990.0 |
| 20260503011511 | 52 | 191 | 0.0 | 2.0 | 0.00 | 0.00 | 0.00 | 43 | 989.9 |
| 20260503011008 | 52 | 220 | 2.0 | 3.0 | 0.00 | 0.00 | 0.00 | 42 | 989.9 |
| 20260503010504 | 52 | 186 | 2.0 | 2.0 | 0.00 | 0.00 | 0.00 | 42 | 989.8 |
| 20260503010002 | 52 | 174 | 2.0 | 3.0 | 0.00 | 0.00 | 0.00 | 42 | 989.6 |
| 20260503005459 | 52 | 205 | 2.0 | 3.0 | 0.00 | 0.00 | 0.00 | 41 | 989.4 |
| 20260503004956 | 52 | 187 | 1.0 | 2.0 | 0.00 | 0.00 | 0.00 | 41 | 989.4 |
| 20260503004452 | 53 | 207 | 2.0 | 3.0 | 0.00 | 0.00 | 0.00 | 40 | 989.3 |
| 20260503003951 | 53 | 164 | 2.0 | 6.0 | 0.00 | 0.00 | 0.00 | 40 | 989.2 |
| 20260503003447 | 53 | 105 | 0.0 | 1.0 | 0.00 | 0.00 | 0.00 | 40 | 989.0 |
| 20260503002944 | 53 | 163 | 0.0 | 0.0 | 0.00 | 0.00 | 0.00 | 40 | 989.2 |
| 20260503002441 | 53 | 169 | 2.0 | 3.0 | 0.00 | 0.00 | 0.00 | 38 | 989.1 |
| 20260503001937 | 53 | 213 | 0.0 | 2.0 | 0.00 | 0.00 | 0.00 | 38 | 988.9 |
| 20260503001434 | 53 | 235 | 3.0 | 4.0 | 0.00 | 0.00 | 0.00 | 37 | 988.9 |
| 20260503000932 | 53 | 217 | 4.0 | 8.0 | 0.00 | 0.00 | 0.00 | 37 | 988.8 |
| 20260503000430 | 53 | 190 | 1.0 | 2.0 | 0.00 | 0.00 | 0.00 | 38 | 988.6 |
| 20260502235926 | 53 | 147 | 1.0 | 1.0 | 0.00 | 0.00 | 0.00 | 37 | 988.6 |
| 20260502235422 | 54 | 142 | 2.0 | 2.0 | 0.00 | 0.00 | 0.00 | 37 | 988.6 |
| 20260502234920 | 54 | 171 | 1.0 | 2.0 | 0.00 | 0.00 | 0.00 | 37 | 988.5 |
| 20260502234416 | 54 | 135 | 2.0 | 3.0 | 0.00 | 0.00 | 0.00 | 36 | 988.5 |
| 20260502233914 | 54 | 218 | 5.0 | 9.0 | 0.00 | 0.00 | 0.00 | 35 | 988.4 |
| 20260502233409 | 54 | 213 | 1.0 | 1.0 | 0.00 | 0.00 | 0.00 | 37 | 988.4 |
| 20260502232907 | 54 | 205 | 0.0 | 0.0 | 0.00 | 0.00 | 0.00 | 38 | 988.3 |
| 20260502232402 | 54 | 174 | 0.0 | 2.0 | 0.00 | 0.00 | 0.00 | 38 | 988.3 |
| 20260502231859 | 54 | 176 | 2.0 | 4.0 | 0.00 | 0.00 | 0.00 | 37 | 988.1 |
| 20260502231357 | 54 | 184 | 0.0 | 4.0 | 0.00 | 0.00 | 0.00 | 37 | 988.3 |
| 20260502230855 | 55 | 117 | 0.0 | 2.0 | 0.00 | 0.00 | 0.00 | 37 | 988.0 |
| 20260502230353 | 55 | 205 | 1.0 | 1.0 | 0.00 | 0.00 | 0.00 | 37 | 988.1 |
| 20260502225849 | 55 | 210 | 2.0 | 3.0 | 0.00 | 0.00 | 0.00 | 35 | 988.0 |
| 20260502225346 | 55 | 167 | 2.0 | 2.0 | 0.00 | 0.00 | 0.00 | 35 | 988.0 |
| 20260502224843 | 56 | 168 | 1.0 | 2.0 | 0.00 | 0.00 | 0.00 | 36 | 988.1 |
| 20260502224339 | 56 | 116 | 0.0 | 1.0 | 0.00 | 0.00 | 0.00 | 36 | 988.0 |
| 20260502223837 | 56 | 110 | 1.0 | 2.0 | 0.00 | 0.00 | 0.00 | 35 | 988.3 |
| 20260502223335 | 56 | 103 | 1.0 | 3.0 | 0.00 | 0.00 | 0.00 | 34 | 988.1 |
| 20260502222832 | 56 | 115 | 1.0 | 2.0 | 0.00 | 0.00 | 0.00 | 35 | 988.1 |
| 20260502222330 | 56 | 230 | 1.0 | 3.0 | 0.00 | 0.00 | 0.00 | 38 | 988.0 |
| 20260502221825 | 56 | 195 | 2.0 | 6.0 | 0.00 | 0.00 | 0.00 | 35 | 988.0 |
| 20260502221322 | 56 | 134 | 0.0 | 1.0 | 0.00 | 0.00 | 0.00 | 36 | 988.0 |
| 20260502220819 | 56 | 161 | 4.0 | 7.0 | 0.00 | 0.00 | 0.00 | 35 | 988.0 |
| 20260502220314 | 56 | 185 | 3.0 | 4.0 | 0.00 | 0.00 | 0.00 | 35 | 987.7 |
| 20260502215811 | 56 | 93 | 1.0 | 2.0 | 0.00 | 0.00 | 0.00 | 36 | 987.8 |
| 20260502215309 | 57 | 169 | 1.0 | 7.0 | 0.00 | 0.00 | 0.00 | 34 | 988.2 |
| 20260502214806 | 56 | 203 | 2.0 | 10.0 | 0.00 | 0.00 | 0.00 | 36 | 987.8 |
| 20260502214302 | 56 | 165 | 2.0 | 2.0 | 0.00 | 0.00 | 0.00 | 36 | 987.7 |
| 20260502213759 | 56 | 193 | 1.0 | 2.0 | 0.00 | 0.00 | 0.00 | 36 | 987.6 |
| 20260502213257 | 57 | 188 | 6.0 | 8.0 | 0.00 | 0.00 | 0.00 | 34 | 987.7 |
| 20260502212755 | 57 | 160 | 8.0 | 11.0 | 0.00 | 0.00 | 0.00 | 35 | 987.9 |
| 20260502212253 | 56 | 168 | 2.0 | 3.0 | 0.00 | 0.00 | 0.00 | 36 | 987.9 |
| 20260502211749 | 56 | 225 | 4.0 | 7.0 | 0.00 | 0.00 | 0.00 | 35 | 987.9 |
| 20260502211246 | 56 | 160 | 6.0 | 10.0 | 0.00 | 0.00 | 0.00 | 36 | 987.8 |
| 20260502210743 | 56 | 208 | 0.0 | 6.0 | 0.00 | 0.00 | 0.00 | 38 | 987.9 |
| 20260502210241 | 56 | 198 | 4.0 | 7.0 | 0.00 | 0.00 | 0.00 | 35 | 987.6 |
| 20260502205738 | 56 | 200 | 4.0 | 7.0 | 0.00 | 0.00 | 0.00 | 35 | 987.7 |
| 20260502205233 | 56 | 193 | 0.0 | 6.0 | 0.00 | 0.00 | 0.00 | 36 | 987.8 |
| 20260502204731 | 57 | 217 | 7.0 | 13.0 | 0.00 | 0.00 | 0.00 | 36 | 987.8 |
| 20260502204228 | 57 | 194 | 3.0 | 3.0 | 0.00 | 0.00 | 0.00 | 35 | 987.7 |